Hourly Weather Roundup
Issued by NWS Central Illinois

Home | Current Version | Previous Version | Text Only | Print | Product List | Glossary On
Versions: 1 2 3 4 5 6 7 8 9 10 11 12 13 14 15 16 17 18 19 20 21 22 23 24 25 26 27 28 29 30 31 32 33 34 35 36 37 38 39 40 41 42 43 44 45 46 47 48 49 50
000
NZUS43 KILX 270910
HWRILX

AREA WEATHER ROUNDUP
NATIONAL WEATHER SERVICE, LINCOLN IL
400 AM CDT WED AUG 27 2014


CITY           SKY/WX    TMP DP  RH WIND       PRES   REMARKS
BLOOMINGTON    PTCLDY    70  66  86 N6        30.11S
CHAMPAIGN      PTCLDY    69  65  86 N3        30.10R
DECATUR        PTCLDY    69  66  90 CALM      30.10S
FLORA          NOT AVBL
GALESBURG      MOCLDY    69  67  94 N5        30.11F
JACKSONVILLE   PTCLDY    72  69  92 CALM      30.08S
LACON          PTCLDY    70  65  85 CALM      30.10S
LAWRENCEVILLE  MOCLDY    73  71  93 N7        30.07R
LITCHFIELD     MOCLDY    71  69  94 CALM      30.06F
$$


CITY           SKY/WX    TMP DP  RH WIND       PRES   REMARKS
LINCOLN        PTCLDY    72  68  89 S5        30.07R THUNDER
MACOMB         PTCLDY    69  68  95 N3        30.12F
MATTOON        MOCLDY    69  67  93 SE5       30.08S
MT CARMEL AP   PTCLDY    73  72  94 CALM      30.06S FOG
OLNEY-NOBLE AP PTCLDY    72  70  94 CALM      30.08R
PARIS          MOCLDY    68  68 100 CALM      30.09F FOG
PEORIA         MOCLDY    74  67  78 NE3       30.10F
PONTIAC        MOCLDY    72  70  94 NE5       30.10R
RANTOUL        CLEAR     70  65  85 CALM      30.10S
ROBINSON       MOCLDY    73  72  97 CALM      30.09S
SPRINGFIELD    MOCLDY    71  66  84 NE8       30.09R
TAYLORVILLE    PTCLDY    68  64  88 NE3       30.08S
$$

...REGIONAL REPORTS...


CITY           SKY/WX    TMP DP  RH WIND       PRES   REMARKS
CHICAGO O`HARE CLOUDY    69  63  81 N6        30.11S
KANKAKEE       CLOUDY    70  66  87 NE5       30.10S
MOLINE         MOCLDY    71  64  78 NE7       30.11F
MOUNT VERNON   PTCLDY    72  68  88 CALM      30.06F
PITTSFIELD     PTCLDY    75  68  79 SW5       30.08S
QUINCY         PTCLDY    71  69  93 N7        30.09F
ROCKFORD       CLOUDY    67  58  72 NE6       30.15S
$$


CITY           SKY/WX    TMP DP  RH WIND       PRES   REMARKS
BURLINGTON     PTCLDY    71  68  90 NE7       30.11S
CEDAR RAPIDS   LGT RAIN  67  64  90 NE7       30.14R
DES MOINES     PTCLDY    69  62  78 NE6       30.12S
KIRKSVILLE     CLEAR     69  67  93 NE6       30.11S
OTTUMWA        CLEAR     66  64  93 NE6       30.12S
ST LOUIS       PTCLDY    76  69  79 W6        30.07F
$$


CITY           SKY/WX    TMP DP  RH WIND       PRES   REMARKS
TERRE HAUTE    MOCLDY    69  67  93 CALM      30.08F
EVANSVILLE     CLEAR     75  71  87 CALM      30.06F
INDIANAPOLIS   CLOUDY    72  69  90 CALM      30.08S
LAFAYETTE      MOCLDY    65  65 100 CALM      30.08S
MADISON        CLOUDY    63  60  90 NW3       30.16S
MILWAUKEE      CLOUDY    64  58  80 NW3       30.13S
$$




USA.gov is the U.S. government's official web portal to all federal, state and local government web resources and services.